Vero Beach, FL

7:07 AM EDT on July 28, 2017 (GMT -0400)
Vero Beach Municipal

Weather History for KVRB - November, 2012

Change the Weather History Date:

Monday, November 12, 2012

  Actual Average Record
Temperature  
Mean Temperature 75 °F 71 °F  
Max Temperature 81 °F 80 °F 90 °F (2002)
Min Temperature 69 °F 62 °F 44 °F (1984)
Degree Days  
Heating Degree Days 0 1  
Month to date heating degree days 15 4  
Since 1 July heating degree days 32 7  
Cooling Degree Days 10 6  
Month to date cooling degree days 35 88  
Year to date cooling degree days 3380 3216  
Growing Degree Days 24 (Base 50)    
Moisture  
Dew Point 66 °F    
Average Humidity 76    
Maximum Humidity 90    
Minimum Humidity 62    
Precipitation  
Precipitation T in 0.12 in 3.45 in (1945)
Month to date precipitation 0.02 1.45  
Year to date precipitation 45.56 47.85  
Sea Level Pressure  
Sea Level Pressure 30.20 in    
Wind  
Wind Speed 9 mph (East)    
Max Wind Speed 20 mph    
Max Gust Speed 24 mph    
Visibility 10 miles    
Events      
T = Trace of Precipitation, MM = Missing Value Source: NWS Daily Summary

Daily Weather History Graph

Daily Weather History Graph

Search for Another Location

Airport or City:

Trip Planner

Search our weather history database for the weather conditions in past years. The results will help you decide how hot, cold, wet, or windy it might be!

Date:

Astronomy

Nov. 12, 2012 Rise Set
Actual Time 6:40 AM EST 5:30 PM EST
Civil Twilight 6:16 AM EST 5:55 PM EST
Nautical Twilight 5:48 AM EST 6:23 PM EST
Astronomical Twilight 5:20 AM EST 6:51 PM EST
Moon 5:09 AM EST (11/12) 4:32 PM EST (11/12)
Length of Visible Light 11h 39m
Length of Day
10h 49m
Waning Crescent, 2% of the Moon is Illuminated
Nov 12
Waning Crescent
Nov 13
New
Nov 20
First Quarter
Nov 28
Full
Dec 6
Last Quarter

Hourly Weather History & Observations

Time (EST) Temp. Dew Point Humidity Pressure Visibility Wind Dir Wind Speed Gust Speed Precip Events Conditions
12:53 AM 72.0 °F 64.0 °F 76% 30.23 in 10.0 mi East 6.9 mph - N/A   Overcast
2:53 AM 73.9 °F 63.0 °F 68% 30.20 in 10.0 mi ESE 12.7 mph - N/A   Clear
3:53 AM 73.0 °F 64.9 °F 76% 30.20 in 10.0 mi East 6.9 mph - N/A   Partly Cloudy
4:53 AM 73.9 °F 66.0 °F 76% 30.19 in 10.0 mi East 9.2 mph - N/A   Mostly Cloudy
5:53 AM 73.0 °F 66.0 °F 79% 30.20 in 10.0 mi East 8.1 mph - N/A   Overcast
6:53 AM 72.0 °F 63.0 °F 73% 30.21 in 10.0 mi East 10.4 mph - N/A   Mostly Cloudy
7:53 AM 71.1 °F 66.9 °F 87% 30.22 in 10.0 mi NE 3.5 mph - 0.00 in   Overcast
8:53 AM 75.9 °F 64.9 °F 69% 30.23 in 10.0 mi East 11.5 mph 20.7 mph N/A   Mostly Cloudy
9:53 AM 79.0 °F 64.9 °F 62% 30.23 in 10.0 mi East 13.8 mph 21.9 mph N/A   Scattered Clouds
10:53 AM 79.0 °F 66.9 °F 66% 30.24 in 10.0 mi East 15.0 mph 21.9 mph N/A   Scattered Clouds
11:53 AM 78.1 °F 66.0 °F 66% 30.22 in 10.0 mi East 15.0 mph - N/A   Scattered Clouds
12:53 PM 79.0 °F 66.0 °F 64% 30.20 in 10.0 mi East 10.4 mph - N/A   Overcast
1:53 PM 79.0 °F 66.9 °F 66% 30.18 in 10.0 mi East 12.7 mph - N/A   Mostly Cloudy
2:53 PM 79.0 °F 66.0 °F 64% 30.17 in 10.0 mi East 12.7 mph - N/A   Scattered Clouds
3:53 PM 78.1 °F 66.9 °F 68% 30.17 in 10.0 mi ENE 11.5 mph - N/A   Mostly Cloudy
4:53 PM 73.9 °F 66.0 °F 76% 30.17 in 10.0 mi NNE 6.9 mph - N/A   Overcast
5:53 PM 69.1 °F 66.0 °F 90% 30.17 in 10.0 mi NNW 3.5 mph - 0.00 in   Overcast
6:53 PM 70.0 °F 66.9 °F 90% 30.18 in 10.0 mi SSW 5.8 mph - 0.00 in   Overcast
7:53 PM 72.0 °F 66.9 °F 84% 30.18 in 10.0 mi East 8.1 mph - N/A   Overcast
8:53 PM 72.0 °F 66.0 °F 81% 30.19 in 10.0 mi East 6.9 mph - N/A   Mostly Cloudy
9:53 PM 72.0 °F 64.9 °F 78% 30.17 in 10.0 mi East 6.9 mph - N/A   Clear
10:53 PM 71.1 °F 64.9 °F 81% 30.17 in 10.0 mi East 6.9 mph - N/A   Clear
11:53 PM 70.0 °F 64.0 °F 81% 30.17 in 10.0 mi East 4.6 mph - N/A   Clear